Terug naar catalogus

SL-8 R/B

ActiefPO
NORAD 15078·ROCKET BODY·🇷🇺 Russia

Gelanceerd Jun 27, 1984 vanaf Plesetsk Cosmodrome

Loading…

Volgende Passages (komende 24 uur)

TLE

VersSource: Space-Track

Epoch: Sep 14, 2026, 19:31 UTC

1 15078U 84067B   26257.81324470  .00000125  00000-0  10980-3 0  9996
2 15078  82.9512 105.7972 0024950 355.0307   5.0599 13.77605370121252

Volg SL-8 R/B in realtime met AllMySat

Download on the App Store